CW4658 Weather Reports


Display with metric or nautical units.
time (UTC)temp
F
wind
direction
speed
MPH
gust
MPH
rain 1hr
in
rain 24hr
in
rain mn
in
humidity
%
barometer
mb
20260506004006 54 33 3.0 7.0 0.00 0.00 0.00 80 1006.5
20260506003605 54 25 3.0 8.0 0.00 0.00 0.00 80 1006.2
20260506003205 54 21 3.0 9.0 0.00 0.00 0.00 80 1006.2
20260506002805 54 23 3.0 9.0 0.00 0.00 0.00 80 1005.9
20260506002406 54 25 4.0 9.0 0.00 0.00 0.00 80 1005.5
20260506002007 54 21 4.0 10.0 0.00 0.00 0.00 80 1005.9
20260506001606 54 21 4.0 10.0 0.00 0.00 0.00 80 1005.7
20260506000806 55 12 3.0 11.0 0.00 0.00 0.00 80 1006.3
20260506000006 55 24 4.0 11.0 0.00 0.00 0.00 80 1006.4
20260505235605 55 25 3.0 10.0 0.00 0.00 0.00 81 1006.2
20260505235205 55 20 3.0 14.0 0.00 0.00 0.00 81 1006.2
20260505234405 55 18 4.0 14.0 0.00 0.00 0.00 81 1006.2
20260505234006 55 26 4.0 13.0 0.00 0.00 0.00 81 1006.0
20260505233606 55 26 4.0 13.0 0.00 0.00 0.00 81 1005.7
20260505233205 55 22 4.0 9.0 0.00 0.00 0.00 81 1005.8
20260505232806 56 25 4.0 9.0 0.00 0.00 0.00 81 1005.8
20260505232405 56 25 4.0 11.0 0.00 0.00 0.00 81 1005.5
20260505232007 56 25 3.0 11.0 0.00 0.00 0.00 81 1005.6
20260505231206 56 22 3.0 13.0 0.00 0.00 0.00 81 1005.1
20260505230805 56 21 4.0 13.0 0.00 0.00 0.00 81 1005.3
20260505230405 56 22 4.0 13.0 0.00 0.00 0.00 81 1005.1
20260505225606 56 30 5.0 15.0 0.00 0.00 0.00 81 1004.9
20260505225205 56 26 5.0 15.0 0.00 0.00 0.00 81 1004.8
20260505224806 56 17 4.0 12.0 0.00 0.00 0.00 80 1005.0
20260505224006 57 22 5.0 14.0 0.00 0.00 0.00 81 1004.5
20260505223607 57 21 6.0 14.0 0.00 0.00 0.00 80 1004.4
20260505223206 57 25 5.0 13.0 0.00 0.00 0.00 80 1004.6
20260505222806 57 28 4.0 13.0 0.00 0.00 0.00 80 1004.5
20260505222405 58 32 4.0 10.0 0.00 0.00 0.00 80 1004.6
20260505221606 58 27 4.0 10.0 0.00 0.00 0.00 80 1004.7
20260505221206 58 25 5.0 10.0 0.00 0.00 0.00 80 1004.7
20260505220806 58 32 4.0 11.0 0.00 0.00 0.00 80 1004.3
20260505220406 58 25 4.0 11.0 0.00 0.00 0.00 79 1004.0
20260505220007 59 22 3.0 12.0 0.00 0.00 0.00 80 1003.8
20260505215606 59 26 3.0 12.0 0.00 0.00 0.00 80 1004.0
20260505215206 59 25 3.0 10.0 0.00 0.00 0.00 80 1004.2
20260505214806 59 20 3.0 10.0 0.00 0.00 0.00 80 1004.3
20260505214406 59 14 3.0 10.0 0.00 0.00 0.00 80 1004.6
20260505214007 59 23 2.0 8.0 0.00 0.00 0.00 81 1004.5
20260505213606 59 17 3.0 12.0 0.00 0.00 0.00 81 1004.3
20260505213206 59 27 3.0 12.0 0.00 0.00 0.00 80 1004.5
20260505212805 60 19 3.0 12.0 0.00 0.00 0.00 80 1004.3
20260505212406 60 24 4.0 12.0 0.00 0.00 0.00 80 1004.4
20260505211607 60 27 4.0 12.0 0.00 0.00 0.00 80 1003.6
20260505211205 60 26 4.0 12.0 0.00 0.00 0.00 80 1003.6
20260505210806 60 26 4.0 12.0 0.00 0.00 0.00 80 1003.4
20260505210406 60 21 4.0 12.0 0.00 0.00 0.00 80 1003.4
20260505210007 60 24 4.0 12.0 0.00 0.00 0.00 80 1003.3
20260505205606 60 28 3.0 10.0 0.00 0.00 0.00 81 1003.7
20260505205206 60 33 3.0 10.0 0.00 0.00 0.00 81 1003.8
20260505204806 60 30 4.0 10.0 0.00 0.00 0.00 80 1004.1
20260505204406 60 31 4.0 13.0 0.00 0.00 0.00 80 1003.9
20260505204007 60 33 4.0 13.0 0.00 0.00 0.00 80 1003.7
20260505203606 61 25 4.0 9.0 0.00 0.00 0.00 80 1003.9
20260505203206 61 19 3.0 9.0 0.00 0.00 0.00 80 1004.0
20260505202806 61 18 4.0 12.0 0.00 0.00 0.00 80 1004.1
20260505202406 61 26 5.0 12.0 0.00 0.00 0.00 80 1003.9
20260505202006 61 29 4.0 12.0 0.00 0.00 0.00 80 1003.7
20260505201606 62 27 4.0 11.0 0.00 0.00 0.00 80 1003.6
20260505201206 62 16 3.0 10.0 0.00 0.00 0.00 80 1003.5
20260505200406 62 352 3.0 7.0 0.00 0.00 0.00 80 1003.4
20260505195606 62 25 3.0 13.0 0.00 0.00 0.00 79 1003.2
20260505195206 63 13 3.0 7.0 0.00 0.00 0.00 79 1003.1
20260505194806 63 15 3.0 7.0 0.00 0.00 0.00 79 1003.1
20260505194405 63 30 3.0 10.0 0.00 0.00 0.00 79 1003.1
20260505194007 63 31 4.0 10.0 0.00 0.00 0.00 79 1003.2
20260505193206 64 33 4.0 11.0 0.00 0.00 0.00 79 1003.2
20260505192406 64 24 3.0 10.0 0.00 0.00 0.00 79 1003.1
20260505192007 64 16 3.0 13.0 0.00 0.00 0.00 80 1003.1
20260505191606 63 22 3.0 13.0 0.00 0.00 0.00 81 1003.1
20260505191206 63 19 4.0 13.0 0.00 0.00 0.00 80 1003.0
20260505190807 63 25 4.0 12.0 0.00 0.00 0.00 81 1003.0
20260505190406 63 20 4.0 12.0 0.00 0.00 0.00 81 1003.1
20260505185607 64 300 2.0 8.0 0.00 0.00 0.00 81 1003.3
20260505184805 64 344 2.0 7.0 0.00 0.00 0.00 81 1003.2
20260505184406 65 354 3.0 7.0 0.00 0.00 0.00 80 1003.0
20260505184008 65 331 2.0 7.0 0.00 0.00 0.00 80 1002.8
20260505182806 66 352 3.0 6.0 0.00 0.00 0.00 81 1002.7
20260505182406 66 14 2.0 7.0 0.00 0.00 0.00 81 1002.4
20260505181607 66 12 2.0 10.0 0.00 0.00 0.00 80 1001.7
20260505181206 66 12 2.0 10.0 0.00 0.00 0.00 80 1001.9
20260505180806 67 355 2.0 6.0 0.00 0.00 0.00 79 1002.0
20260505180406 67 7 2.0 10.0 0.00 0.00 0.00 78 1002.0
20260505180008 68 26 3.0 10.0 0.00 0.00 0.00 77 1001.9
20260505175606 69 2 3.0 10.0 0.00 0.00 0.00 75 1002.0
20260505174806 72 275 3.0 8.0 0.00 0.00 0.00 72 1001.9
20260505174406 75 245 2.0 6.0 0.00 0.00 0.00 70 1001.7
20260505174008 76 196 2.0 5.0 0.00 0.00 0.00 77 1001.5
20260505173607 76 191 2.0 9.0 0.00 0.00 0.00 79 1001.4
20260505173206 75 196 3.0 9.0 0.00 0.00 0.00 77 1001.3
20260505172806 75 199 3.0 8.0 0.00 0.00 0.00 77 1001.2
20260505172406 75 199 3.0 8.0 0.00 0.00 0.00 77 1001.2
20260505172007 75 196 3.0 7.0 0.00 0.00 0.00 78 1001.2
20260505171607 75 193 2.0 7.0 0.00 0.00 0.00 77 1001.2
20260505171206 74 193 2.0 7.0 0.00 0.00 0.00 78 1001.1
20260505170806 74 189 1.0 3.0 0.00 0.00 0.00 77 1001.1
20260505170406 74 179 2.0 9.0 0.00 0.00 0.00 78 1001.3
20260505170008 74 177 2.0 9.0 0.00 0.00 0.00 78 1001.4
20260505165606 74 184 2.0 5.0 0.00 0.00 0.00 77 1001.5
20260505165207 74 186 1.0 5.0 0.00 0.00 0.00 78 1001.5
20260505164007 74 186 1.0 6.0 0.00 0.00 0.00 78 1001.4
20260505163607 73 192 1.0 5.0 0.00 0.00 0.00 79 1001.4
20260505163207 73 194 1.0 5.0 0.00 0.00 0.00 79 1001.3
20260505162806 73 196 2.0 7.0 0.00 0.00 0.00 79 1001.4
20260505162407 72 196 1.0 7.0 0.00 0.00 0.00 79 1001.5
20260505162007 72 194 1.0 7.0 0.00 0.00 0.00 79 1001.6
20260505161206 72 187 1.0 5.0 0.00 0.00 0.00 78 1001.6
20260505160806 72 184 1.0 5.0 0.00 0.00 0.00 78 1001.5
20260505160406 72 183 1.0 5.0 0.00 0.00 0.00 78 1001.3
20260505153206 73 172 2.0 6.0 0.00 0.00 0.00 77 1001.2
20260505152807 73 184 2.0 8.0 0.00 0.00 0.00 77 1001.0
20260505152008 73 192 3.0 8.0 0.00 0.00 0.00 77 1001.0
20260505151606 72 191 2.0 7.0 0.00 0.00 0.00 77 1000.9
20260505151206 72 192 3.0 7.0 0.00 0.00 0.00 77 1000.8
20260505150806 72 195 3.0 7.0 0.00 0.00 0.00 77 1000.9
20260505140404 70 181 0.0 2.0 0.00 0.00 0.00 79 1001.3
20260505124405 68 351 1.0 6.0 0.00 0.00 0.00 79 1001.9
20260505124006 68 357 1.0 4.0 0.00 0.00 0.00 79 1001.8
20260505123605 68 355 1.0 7.0 0.00 0.00 0.00 79 1001.7
20260505123205 68 313 1.0 7.0 0.00 0.00 0.00 79 1001.7
20260505122405 68 339 1.0 6.0 0.00 0.00 0.00 79 1001.6
20260505122005 68 341 1.0 6.0 0.00 0.00 0.00 79 1001.6
20260505121605 68 325 1.0 6.0 0.00 0.00 0.00 79 1001.5
20260505121204 68 308 0.0 4.0 0.00 0.00 0.00 79 1001.3
20260505120804 68 284 1.0 4.0 0.00 0.00 0.00 79 1001.3
20260505120405 68 249 1.0 4.0 0.00 0.00 0.00 79 1001.4
20260505120006 68 247 1.0 4.0 0.00 0.00 0.00 78 1001.3
20260505115604 68 289 1.0 5.0 0.00 0.00 0.00 79 1001.0
20260505115204 68 335 1.0 5.0 0.00 0.00 0.00 78 1001.0
20260505114405 68 338 1.0 5.0 0.00 0.00 0.00 77 1000.8
20260505114006 68 350 2.0 5.0 0.00 0.00 0.00 77 1000.7
20260505113605 68 349 1.0 5.0 0.00 0.00 0.00 78 1000.7
20260505112804 68 333 1.0 7.0 0.00 0.00 0.00 78 1000.6
20260505112405 68 300 1.0 3.0 0.00 0.00 0.00 78 1000.6
20260505112006 68 349 1.0 5.0 0.00 0.00 0.00 78 1000.6
20260505111605 68 353 1.0 5.0 0.00 0.00 0.00 77 1000.6
20260505110804 68 300 1.0 5.0 0.00 0.00 0.00 77 1000.6
20260505110405 68 300 1.0 5.0 0.00 0.00 0.00 77 1000.6
20260505102005 69 2 1.0 4.0 0.00 0.00 0.00 76 1000.1
20260505101604 69 7 1.0 4.0 0.00 0.00 0.00 76 1000.2
20260505101204 69 16 1.0 4.0 0.00 0.00 0.00 76 1000.2
20260505100805 69 16 1.0 3.0 0.00 0.00 0.00 76 1000.2
20260505100404 69 16 0.0 3.0 0.00 0.00 0.00 76 1000.0
20260505100005 69 343 0.0 2.0 0.00 0.00 0.00 77 1000.0
20260505095604 69 336 0.0 2.0 0.00 0.00 0.00 76 1000.0
20260505095205 69 334 1.0 4.0 0.00 0.00 0.00 76 1000.0
20260505094804 69 334 1.0 4.0 0.00 0.00 0.00 76 1000.0
20260505094405 69 338 1.0 5.0 0.00 0.00 0.00 76 1000.0
20260505094005 69 343 0.0 5.0 0.00 0.00 0.00 75 1000.0
20260505093605 69 281 0.0 4.0 0.00 0.00 0.00 75 1000.1
20260505092804 70 275 1.0 4.0 0.00 0.00 0.00 75 1000.0
20260505092405 70 289 1.0 4.0 0.00 0.00 0.00 75 1000.2
20260505092005 69 9 0.0 3.0 0.00 0.00 0.00 75 1000.2
20260505091604 69 8 1.0 4.0 0.00 0.00 0.00 76 1000.3
20260505091205 69 7 1.0 4.0 0.00 0.00 0.00 77 1000.4
20260505090805 69 358 0.0 4.0 0.00 0.00 0.00 78 1000.3
20260505090405 69 1 0.0 2.0 0.00 0.00 0.00 78 1000.4
20260505090005 69 0 0.0 0.0 0.00 0.00 0.00 78 1000.4
20260505085605 69 0 0.0 0.0 0.00 0.00 0.00 78 1000.4
20260505084405 69 0 0.0 0.0 0.00 0.00 0.00 78 1000.5
20260505084006 69 0 0.0 0.0 0.00 0.00 0.00 77 1000.4
20260505083605 69 0 0.0 0.0 0.00 0.00 0.00 77 1000.5
20260505082804 69 0 0.0 0.0 0.00 0.00 0.00 76 1000.7
20260505081605 69 19 0.0 3.0 0.00 0.00 0.00 76 1000.7
20260505080805 69 30 1.0 3.0 0.00 0.00 0.00 76 1000.7
20260505080404 69 42 0.0 2.0 0.00 0.00 0.00 77 1000.6
20260505075604 69 42 0.0 2.0 0.00 0.00 0.00 77 1000.7
20260505075205 69 42 0.0 2.0 0.00 0.00 0.00 77 1000.7
20260505074805 69 43 0.0 1.0 0.00 0.00 0.00 77 1000.7
20260505074405 69 0 0.0 0.0 0.00 0.00 0.00 77 1000.7
20260505073605 69 42 0.0 2.0 0.00 0.00 0.00 76 1000.7
20260505073205 69 49 1.0 4.0 0.00 0.00 0.00 76 1000.7
20260505072805 69 66 1.0 4.0 0.00 0.00 0.00 77 1000.8
20260505072006 69 166 0.0 4.0 0.00 0.00 0.00 76 1000.4
20260505071604 69 162 0.0 4.0 0.00 0.00 0.00 76 1000.2
20260505071205 69 166 0.0 5.0 0.00 0.00 0.00 76 999.9
20260505070405 69 197 0.0 5.0 0.00 0.00 0.00 76 999.8
20260505070006 69 196 0.0 5.0 0.00 0.00 0.00 76 999.8
20260505065605 69 189 0.0 1.0 0.00 0.00 0.00 76 999.8
20260505064804 69 188 0.0 2.0 0.00 0.00 0.00 75 1000.1
20260505064405 69 188 0.0 2.0 0.00 0.00 0.00 75 1000.2
20260505064005 69 189 0.0 2.0 0.00 0.00 0.00 75 1000.3
20260505063606 69 188 0.0 4.0 0.00 0.00 0.00 75 1000.2
20260505062804 69 187 0.0 4.0 0.00 0.00 0.00 75 1000.3
20260505062405 69 186 0.0 3.0 0.00 0.00 0.00 75 1000.5
20260505062005 69 191 0.0 1.0 0.00 0.00 0.00 75 1000.7
20260505061204 69 192 0.0 3.0 0.00 0.00 0.00 75 1000.8
20260505060805 69 192 0.0 3.0 0.00 0.00 0.00 74 1000.8
20260505060404 69 191 0.0 3.0 0.00 0.00 0.00 74 1000.8
20260505055604 69 187 1.0 4.0 0.00 0.00 0.00 74 1001.0
20260505055205 69 183 1.0 4.0 0.00 0.00 0.00 74 1000.9
20260505054805 70 174 1.0 4.0 0.00 0.00 0.00 73 1000.9
20260505054406 70 169 1.0 4.0 0.00 0.00 0.00 73 1001.0
20260505054007 70 164 0.0 4.0 0.00 0.00 0.00 73 1000.9
20260505053605 70 173 1.0 7.0 0.00 0.00 0.00 73 1000.8
20260505053205 70 181 1.0 7.0 0.00 0.00 0.00 73 1000.9
20260505052805 70 184 1.0 7.0 0.00 0.00 0.00 73 1000.9
20260505052006 70 179 2.0 5.0 0.00 0.00 0.00 73 1000.8
20260505051605 70 181 2.0 5.0 0.00 0.00 0.00 73 1000.9
20260505051205 70 183 2.0 9.0 0.00 0.00 0.00 73 1000.7
20260505050805 70 181 2.0 9.0 0.00 0.00 0.00 73 1000.5
20260505050405 70 178 2.0 9.0 0.00 0.00 0.00 73 1000.7
20260505041605 72 181 4.0 13.0 0.00 0.00 0.00 64 1001.0
20260505041205 72 175 3.0 13.0 0.00 0.00 0.00 65 1000.8
20260505040805 72 175 4.0 10.0 0.00 0.00 0.00 65 1001.0
20260505040006 72 173 4.0 11.0 0.00 0.00 0.00 65 1001.2
20260505035605 72 167 2.0 9.0 0.00 0.00 0.00 64 1001.0
20260505035207 72 173 1.0 7.0 0.00 0.00 0.00 64 1001.5
20260505034805 72 194 1.0 6.0 0.00 0.00 0.00 65 1002.2
20260505034405 72 193 1.0 6.0 0.00 0.00 0.00 64 1002.6
20260505034007 72 188 1.0 6.0 0.00 0.00 0.00 64 1002.5
20260505033606 72 189 1.0 5.0 0.00 0.00 0.00 64 1002.3
20260505033205 72 196 1.0 4.0 0.00 0.00 0.00 65 1002.4
20260505032805 72 196 0.0 4.0 0.00 0.00 0.00 65 1002.4
20260505032006 72 196 0.0 1.0 0.00 0.00 0.00 65 1002.5
20260505031205 72 194 0.0 3.0 0.00 0.00 0.00 64 1002.7
20260505030806 72 194 0.0 3.0 0.00 0.00 0.00 64 1002.6
20260505030405 72 190 0.0 3.0 0.00 0.00 0.00 64 1002.5
20260505030006 72 189 0.0 1.0 0.00 0.00 0.00 64 1002.5
20260505025605 72 189 0.0 1.0 0.00 0.00 0.00 64 1002.6
20260505025206 72 189 0.0 1.0 0.00 0.00 0.00 65 1002.7
20260505024805 72 191 0.0 2.0 0.00 0.00 0.00 64 1002.7
20260505024405 72 192 0.0 2.0 0.00 0.00 0.00 65 1002.6
20260505024006 72 198 0.0 2.0 0.00 0.00 0.00 65 1002.7
20260505023606 72 198 0.0 2.0 0.00 0.00 0.00 63 1002.6
20260505023205 72 198 0.0 2.0 0.00 0.00 0.00 63 1002.6
20260505022806 72 198 0.0 1.0 0.00 0.00 0.00 63 1002.7
20260505022007 73 198 0.0 5.0 0.00 0.00 0.00 63 1002.5
20260505021605 73 196 0.0 5.0 0.00 0.00 0.00 62 1002.5
20260505020805 73 194 1.0 3.0 0.00 0.00 0.00 61 1002.4
20260505020405 73 195 1.0 7.0 0.00 0.00 0.00 61 1002.4
20260505015605 73 198 1.0 7.0 0.00 0.00 0.00 62 1002.3
20260505015206 73 191 0.0 4.0 0.00 0.00 0.00 61 1002.4
20260505014405 73 183 1.0 4.0 0.00 0.00 0.00 61 1002.4
20260505014007 73 181 0.0 3.0 0.00 0.00 0.00 61 1002.3
20260505013205 74 175 0.0 2.0 0.00 0.00 0.00 61 1002.3
20260505012806 74 175 0.0 2.0 0.00 0.00 0.00 61 1002.3
20260505012406 74 175 0.0 2.0 0.00 0.00 0.00 61 1002.3
20260505011205 74 193 0.0 2.0 0.00 0.00 0.00 60 1002.4
20260505010806 75 193 0.0 2.0 0.00 0.00 0.00 59 1002.3
20260505010406 75 193 0.0 2.0 0.00 0.00 0.00 60 1002.4
20260505010007 75 194 0.0 4.0 0.00 0.00 0.00 60 1002.3
20260505005207 75 193 0.0 3.0 0.00 0.00 0.00 59 1002.0
20260505004805 76 194 0.0 3.0 0.00 0.00 0.00 58 1002.1
20260505004406 76 194 1.0 4.0 0.00 0.00 0.00 57 1002.2